Location: Kawakawa
(35.3830°S, 174.0670°E)
Time: 18:04:50
(UTC+12:00)

ISS - Pass Details

Date: 03 July 2022
Orbit: 412 x 420 km, 51.6° (Epoch: 13 August)

Event Time Altitude Azimuth Distance (km) Brightness Sun altitude
Rises 18:49:05 0° 214° (SW) 2,385 0.3 -17.1°
Reaches altitude 10° 18:52:01 10° 187° (S) 1,513 -1.0 -17.7°
Enters shadow 18:52:20 11° 182° (S) 1,452 -1.2 -17.8°
